Location: Unspecified
(41.1637°N, 24.2901°E)
Time: 18:04:50
(UTC+02:00)

ISS - Pass Details

Date: 18 May 2024
Orbit: 410 x 414 km, 51.6° (Epoch: 18 May)

Event Time Altitude Azimuth Distance (km) Brightness Sun altitude
Rises 23:28:39 0° 309° (NW) 2,348 0.8 -27.9°
Reaches altitude 10° 23:30:51 10° 319° (NW) 1,483 -0.2 -28.0°
Enters shadow 23:31:59 18° 330° (NNW) 1,081 -1.0 -28.0°
